Weather in Mekhelta

Russia / Republic of Dagestan     42°47′39″N   46°30′06″E
В апреле 2022 года жителям России запретили посещать сайт meteo.paraplan.net по решению Генеральной прокуратуры. Аудитория сайта уменьшилась в 10 раз. Владельцы сайта не видят смысла в поддержке погодного сервера в таких условиях. Сайт будет закрыт в октябре.
temp.,
°C
wind,
m/s
gust,
m/s
humid.,
%
clouds,
%
prec.,
mm/h
press.,
hPa
HPBL,
m
25 september, sun
sun2500:00+4sw229060 3.8 1020225
03:00+5w1280100 4.4 1019189
06:00+6nnw2277100 0.0 1020291
09:00+5nne2283100 0.1 1022467
12:00+5nne2288100 0.1 1023548
15:00+7wsw017249 0.2 1022688
18:00+6ene11800 0.0 102210
21:00+4e12900 0.0 102513
26 september, mon
mon2600:00+3wnw01900 0.0 102510
03:00+3wsw11860 0.0 102510
06:00+2wsw11835 0.0 102511
09:00+10sw11500 0.0 1022335
12:00+15e21320 0.0 10191021
15:00+16ene32330 0.0 10171113
18:00+10ne22600 0.0 101912
21:00+8ssw00694 0.0 102010
27 september, tue
tue2700:00+7wsw22680 0.0 102011
03:00+6wsw22592 0.0 101911
06:00+6wsw22450 0.0 101812
09:00+14sw21280 0.0 1015265
12:00+20ene11170 0.0 1012879
15:00+21ne222147 0.0 10101124
18:00+14ne125295 0.0 101212
21:00+12w115146 0.0 101310
28 september, wed
wed2800:00+10wsw224594 0.0 101312
03:00+9wsw222620 0.0 101112
06:00+9wsw2227100 0.0 101112
09:00+18wsw222699 0.0 1008230
12:00+23se011765 0.0 1005836
15:00+24ne32216 0.0 10041044
18:00+15nnw225150 0.0 100812
21:00+14wnw1252100 0.0 100911
29 september, thu
thu2900:00+12nw225496 0.0 101016
03:00+10nw22657 0.0 101121
06:00+9wnw3374100 0.0 101328
09:00+15wnw3356100 0.0 1012697
12:00+18nnw33471 0.0 10111385
15:00+17nnw324914 0.0 10111204
18:00+12nnw3265100 0.1 101528
21:00+11nw1169100 0.2 101624